CW4038 Weather Reports


time (UTC)temp
C
wind
direction
speed
KPH
gust
KPH
rain 1hr
cm
rain 24hr
cm
rain mn
cm
humidity
%
barometer
mb
20190216000800 11 13 1.6 6.4 0.03 0.03 0.03 83 1016.3
20190215235859 11 4 1.6 6.4 0.00 0.00 0.00 82 1016.3
20190215234958 11 5 3.2 6.4 0.00 0.00 0.00 81 1016.3
20190215234057 11 353 3.2 8.0 0.00 0.00 0.00 80 1016.3
20190215233157 11 358 1.6 12.9 0.00 0.00 0.00 79 1016.3
20190215232256 11 11 6.4 14.5 0.00 0.00 0.00 78 1016.3
20190215231355 11 3 6.4 16.1 0.00 0.00 0.00 78 1016.3
20190215230454 11 332 4.8 11.3 0.00 0.00 0.00 83 1016.4
20190215225554 12 19 3.2 9.7 0.00 0.00 0.00 83 1016.4
20190215224653 12 7 3.2 14.5 0.00 0.00 0.00 84 1016.4
20190215223752 12 16 4.8 16.1 0.00 0.00 0.00 83 1016.4
20190215222851 12 33 4.8 12.9 0.00 0.00 0.00 83 1016.4
20190215221950 12 28 4.8 14.5 0.00 0.00 0.00 85 1016.7
20190215221049 11 43 4.8 17.7 0.00 0.00 0.00 86 1016.7
20190215220149 11 43 4.8 12.9 0.00 0.00 0.00 88 1016.7
20190215215248 11 47 4.8 14.5 0.00 0.00 0.00 87 1016.7
20190215214347 11 6 4.8 11.3 0.00 0.00 0.00 86 1017.1
20190215213446 11 24 3.2 12.9 0.00 0.00 0.00 86 1017.1
20190215212546 11 35 3.2 14.5 0.00 0.00 0.00 87 1017.1
20190215211645 11 0 4.8 16.1 0.00 0.00 0.00 87 1017.1
20190215210744 11 8 4.8 17.7 0.00 0.00 0.00 85 1017.4
20190215205843 11 359 6.4 20.9 0.00 0.00 0.00 83 1017.4
20190215204942 12 12 6.4 16.1 0.00 0.00 0.00 78 1017.5
20190215204042 13 6 4.8 16.1 0.00 0.00 0.00 73 1017.5
20190215203140 13 3 8.0 16.1 0.00 0.00 0.00 71 1017.5
20190215202240 13 5 6.4 9.7 0.00 0.00 0.00 68 1017.5
20190215201339 14 349 3.2 8.0 0.00 0.00 0.00 63 1017.8
20190215200438 15 4 1.6 6.4 0.00 0.00 0.00 57 1017.5
20190215195538 15 57 1.6 4.8 0.00 0.00 0.00 55 1017.5
20190215194636 15 64 1.6 4.8 0.00 0.00 0.00 55 1017.5
20190215193736 15 48 3.2 3.2 0.00 0.00 0.00 53 1017.2
20190215192835 15 128 0.0 1.6 0.00 0.00 0.00 54 1017.5
20190215191934 15 68 1.6 1.6 0.00 0.00 0.00 53 1017.2
20190215191033 15 141 1.6 1.6 0.00 0.00 0.00 56 1017.2
20190215190133 14 111 1.6 3.2 0.00 0.00 0.00 56 1017.2
20190215185232 13 119 1.6 4.8 0.00 0.00 0.00 59 1017.5
20190215184331 13 196 3.2 4.8 0.00 0.00 0.00 59 1017.5
20190215183430 13 155 0.0 4.8 0.00 0.00 0.00 61 1017.5
20190215182529 13 161 1.6 4.8 0.00 0.00 0.00 62 1017.5
20190215181628 13 200 0.0 3.2 0.00 0.00 0.00 64 1017.2
20190215180727 13 159 0.0 3.2 0.00 0.00 0.00 63 1017.2
20190215175826 13 105 0.0 4.8 0.00 0.05 0.00 64 1017.2
20190215174926 13 190 1.6 6.4 0.00 0.05 0.00 64 1017.5
20190215174025 12 176 1.6 6.4 0.00 0.05 0.00 66 1017.2
20190215173123 12 175 4.8 6.4 0.00 0.05 0.00 69 1017.2
20190215172222 11 157 3.2 6.4 0.00 0.05 0.00 70 1017.1
20190215171321 11 184 3.2 6.4 0.00 0.05 0.00 72 1017.1
20190215170420 11 194 0.0 4.8 0.00 0.05 0.00 74 1017.1
20190215165519 10 196 1.6 6.4 0.00 0.05 0.00 75 1017.1
20190215164617 11 198 3.2 6.4 0.00 0.05 0.00 75 1017.2
20190215163717 10 192 1.6 4.8 0.00 0.05 0.00 80 1016.8
20190215162816 9 163 3.2 4.8 0.00 0.15 0.00 84 1016.8
20190215161915 8 147 1.6 4.8 0.00 0.23 0.00 86 1016.8
20190215161014 7 148 0.0 6.4 0.00 0.30 0.00 88 1017.1
20190215160113 7 143 1.6 3.2 0.00 0.36 0.00 90 1017.1
20190215155213 7 217 0.0 4.8 0.00 0.38 0.00 91 1017.1
20190215154312 7 132 0.0 3.2 0.00 0.43 0.00 92 1017.1
20190215153411 7 121 0.0 3.2 0.00 0.46 0.00 93 1016.7
20190215152510 6 143 1.6 1.6 0.00 0.48 0.00 94 1016.7
20190215151609 6 139 0.0 0.0 0.00 0.53 0.00 94 1016.4
20190215150709 6 167 0.0 0.0 0.00 0.58 0.00 94 1016.4
20190215145807 6 155 0.0 1.6 0.00 0.61 0.00 94 1016.4
20190215144907 6 153 0.0 1.6 0.00 0.61 0.00 94 1016.4
20190215144006 6 131 0.0 3.2 0.00 0.61 0.00 94 1016.7
20190215143105 6 153 0.0 3.2 0.00 0.61 0.00 94 1016.8
20190215142205 6 150 1.6 3.2 0.00 0.61 0.00 94 1016.8
20190215141304 6 177 1.6 3.2 0.00 0.61 0.00 95 1016.4
20190215140403 6 152 1.6 3.2 0.00 0.61 0.00 95 1016.4
20190215135503 6 201 0.0 3.2 0.00 0.61 0.00 95 1016.4
20190215134601 6 161 1.6 3.2 0.00 0.61 0.00 95 1016.8
20190215133700 6 160 0.0 0.0 0.00 0.61 0.00 95 1016.5
20190215132759 6 149 0.0 0.0 0.00 0.61 0.00 95 1016.8
20190215131858 6 143 0.0 0.0 0.00 0.61 0.00 95 1016.5
20190215130957 6 143 0.0 0.0 0.00 0.61 0.00 95 1016.8
20190215130057 6 143 0.0 0.0 0.00 0.61 0.00 95 1016.8
20190215125156 5 143 0.0 0.0 0.00 0.61 0.00 95 1016.5
20190215124255 5 143 0.0 0.0 0.00 0.61 0.00 95 1016.5
20190215123354 5 143 0.0 0.0 0.00 0.61 0.00 94 1016.5
20190215122453 5 143 0.0 0.0 0.00 0.61 0.00 94 1016.5
20190215121552 5 143 0.0 0.0 0.00 0.61 0.00 94 1016.5
20190215120651 5 143 0.0 0.0 0.00 0.61 0.00 94 1016.5
20190215115750 5 143 0.0 0.0 0.00 0.61 0.00 93 1016.1
20190215114849 5 143 0.0 0.0 0.00 0.61 0.00 94 1016.5
20190215113948 5 143 0.0 0.0 0.00 0.61 0.00 94 1016.1
20190215113037 5 131 0.0 0.0 0.00 0.61 0.00 93 1016.1
20190215112136 5 129 0.0 0.0 0.00 0.61 0.00 93 1016.1
20190215111235 5 129 0.0 0.0 0.00 0.61 0.00 93 1016.1
20190215110333 5 131 0.0 0.0 0.00 0.61 0.00 92 1016.2
20190215105432 6 129 0.0 0.0 0.00 0.61 0.00 93 1016.2
20190215104531 5 129 0.0 0.0 0.00 0.61 0.00 93 1016.2
20190215103631 5 129 0.0 0.0 0.00 0.61 0.00 91 1016.2
20190215102730 6 131 0.0 0.0 0.00 0.61 0.00 92 1016.2
20190215101829 6 131 0.0 0.0 0.00 0.61 0.00 92 1015.9
20190215100928 6 131 0.0 0.0 0.00 0.61 0.00 91 1016.2
20190215100027 6 131 0.0 0.0 0.00 0.61 0.00 92 1015.9
20190215095126 6 131 0.0 0.0 0.00 0.61 0.00 91 1015.9
20190215094225 6 131 0.0 0.0 0.00 0.61 0.00 91 1015.9
20190215093324 6 131 0.0 0.0 0.00 0.61 0.00 91 1015.9
20190215092422 6 131 0.0 0.0 0.00 0.61 0.00 91 1015.6
20190215091521 6 163 0.0 0.0 0.00 0.61 0.00 90 1015.9
20190215090620 7 164 0.0 0.0 0.00 0.61 0.00 89 1015.9
20190215085719 7 163 0.0 0.0 0.00 0.61 0.00 88 1016.3
20190215084818 7 163 0.0 1.6 0.00 0.61 0.00 89 1016.3
20190215083917 7 163 0.0 1.6 0.00 0.61 0.00 89 1016.3
20190215083016 7 163 0.0 1.6 0.00 0.61 0.00 89 1015.9
20190215082115 7 129 1.6 1.6 0.00 0.61 0.00 88 1015.9
20190215081214 7 64 0.0 0.0 0.00 0.61 0.00 87 1015.9
20190215080313 7 64 0.0 0.0 0.00 0.61 0.00 87 1015.9
20190215075412 8 63 0.0 0.0 0.00 0.61 0.61 86 1015.9
20190215074511 8 64 0.0 0.0 0.00 0.61 0.61 85 1015.9
20190215073610 8 64 0.0 0.0 0.00 0.61 0.61 85 1015.6
20190215072709 8 64 0.0 0.0 0.00 0.61 0.61 84 1015.2
20190215071808 9 63 0.0 0.0 0.00 0.61 0.61 84 1015.2
20190215070907 9 64 0.0 0.0 0.00 0.61 0.61 84 1015.6
20190215070006 10 63 0.0 0.0 0.00 0.61 0.61 84 1015.6
20190215065105 10 65 0.0 0.0 0.00 0.61 0.61 84 1015.2
20190215064204 10 311 0.0 1.6 0.00 0.61 0.61 84 1015.2
20190215063303 10 311 0.0 1.6 0.00 0.61 0.61 85 1015.2
20190215062403 9 308 0.0 1.6 0.00 0.61 0.61 85 1014.9
20190215061502 9 308 0.0 0.0 0.00 0.61 0.61 85 1014.9
20190215060601 9 308 0.0 0.0 0.00 0.61 0.61 85 1014.5
20190215055701 9 308 0.0 0.0 0.00 0.61 0.61 85 1014.5
20190215054800 9 308 0.0 0.0 0.00 0.61 0.61 84 1014.2
20190215053858 9 307 0.0 0.0 0.00 0.61 0.61 83 1014.2
20190215052958 10 307 0.0 0.0 0.00 0.61 0.61 81 1014.2
20190215052056 10 308 0.0 0.0 0.00 0.61 0.61 82 1013.9
20190215051156 10 308 0.0 0.0 0.00 0.61 0.61 80 1013.9
20190215050255 10 308 0.0 0.0 0.00 0.61 0.61 77 1013.6
20190215045354 11 308 0.0 1.6 0.00 0.61 0.61 77 1013.2
20190215044453 11 326 0.0 1.6 0.00 0.61 0.61 76 1013.2
20190215043552 11 326 0.0 1.6 0.00 0.61 0.61 76 1012.9
20190215042651 12 304 1.6 1.6 0.00 0.61 0.61 76 1012.6
20190215041750 12 57 0.0 1.6 0.00 0.61 0.61 76 1012.6
20190215040849 11 229 0.0 0.0 0.00 0.61 0.61 77 1012.6
20190215035948 11 228 0.0 0.0 0.00 0.61 0.61 77 1012.3
20190215035047 11 228 0.0 0.0 0.00 0.61 0.61 77 1012.6
20190215034146 11 228 0.0 0.0 0.00 0.61 0.61 76 1012.6
20190215033244 11 228 0.0 1.6 0.00 0.61 0.61 74 1011.9
20190215032343 12 228 0.0 1.6 0.00 0.61 0.61 73 1011.6
20190215031442 12 227 1.6 3.2 0.00 0.61 0.61 72 1011.3
20190215030541 12 4 1.6 3.2 0.00 0.61 0.61 70 1011.0
20190215025640 13 10 1.6 4.8 0.00 0.61 0.61 69 1010.7
20190215024739 13 220 1.6 4.8 0.00 0.61 0.61 68 1010.7
20190215023838 13 2 1.6 4.8 0.00 0.61 0.61 67 1010.7
20190215022937 13 259 1.6 6.4 0.00 0.61 0.61 66 1010.3
20190215022034 13 265 3.2 6.4 0.00 0.61 0.61 66 1010.3
20190215021133 13 317 3.2 8.0 0.00 0.61 0.61 65 1010.3
20190215020232 14 281 3.2 9.7 0.00 0.61 0.61 65 1009.7
20190215015332 14 246 3.2 11.3 0.00 0.61 0.61 64 1009.7
20190215014431 15 322 3.2 9.7 0.00 0.61 0.61 65 1009.7
20190215013530 15 302 1.6 11.3 0.00 0.61 0.61 64 1009.7
20190215012628 15 339 3.2 12.9 0.00 0.61 0.61 61 1009.4
20190215011727 15 340 3.2 12.9 0.00 0.61 0.61 61 1009.4
20190215010827 15 356 4.8 12.9 0.00 0.61 0.61 59 1008.7
20190215005926 16 249 3.2 14.5 0.00 0.61 0.61 57 1008.0
20190215005025 16 292 4.8 14.5 0.00 0.61 0.61 55 1008.0
20190215004124 16 343 6.4 14.5 0.00 0.61 0.61 54 1008.0
20190215003223 17 315 4.8 11.3 0.00 0.61 0.61 52 1007.7
20190215002322 17 351 3.2 20.9 0.00 0.61 0.61 52 1007.7
20190215001421 17 325 4.8 20.9 0.00 0.61 0.61 51 1007.7